Meteo pe oră la Dagom

Astăzi, 14 Aprilie, Miercuri

Timp Temperatura Precipitaţii Vânt Presiune Umiditate
00:00 -1°C° 0 mm 3 m/s 634 mmHg 82%
01:00 0°C° 0.3 mm 3 m/s 633 mmHg 82%
02:00 +1°C° 0.3 mm 2 m/s 633 mmHg 82%
03:00 +2°C° 0 mm 2 m/s 633 mmHg 81%
04:00 +2°C° 0.6 mm 2 m/s 633 mmHg 83%
05:00 +2°C° 0.6 mm 2 m/s 633 mmHg 85%
06:00 +2°C° 0.6 mm 2 m/s 633 mmHg 88%
07:00 +3°C° 0.7 mm 2 m/s 633 mmHg 86%
08:00 +5°C° 0.7 mm 1 m/s 633 mmHg 83%
09:00 +5°C° 0 mm 1 m/s 633 mmHg 84%
10:00 +6°C° 0.7 mm 1 m/s 633 mmHg 84%
11:00 +6°C° 0.7 mm 1 m/s 633 mmHg 84%
12:00 +5°C° 0.7 mm 2 m/s 633 mmHg 84%
13:00 +5°C° 0.2 mm 2 m/s 634 mmHg 83%
14:00 +6°C° 0.2 mm 2 m/s 634 mmHg 82%
15:00 +6°C° 0 mm 2 m/s 634 mmHg 83%
16:00 +6°C° 0.1 mm 1 m/s 634 mmHg 84%
17:00 +5°C° 0.1 mm 1 m/s 634 mmHg 86%
18:00 +5°C° 0.1 mm 1 m/s 634 mmHg 87%
19:00 +4°C° 0.1 mm 1 m/s 634 mmHg 87%
20:00 +3°C° 0.1 mm 1 m/s 634 mmHg 87%
21:00 +1°C° 0.1 mm 2 m/s 635 mmHg 87%
22:00 -1°C° 0 mm 2 m/s 635 mmHg 83%
23:00 -1°C° 0 mm 2 m/s 634 mmHg 78%

Mâine, 15 Aprilie, Joi

Timp Temperatura Precipitaţii Vânt Presiune Umiditate
00:00 -2°C° 0 mm 3 m/s 634 mmHg 74%
01:00 -2°C° 0 mm 3 m/s 634 mmHg 72%
02:00 -4°C° 0 mm 3 m/s 634 mmHg 69%
03:00 -4°C° 0 mm 3 m/s 634 mmHg 67%
04:00 -2°C° 0 mm 3 m/s 634 mmHg 67%
05:00 -2°C° 0 mm 3 m/s 634 mmHg 67%
06:00 -2°C° 0 mm 3 m/s 634 mmHg 67%
07:00 +2°C° 0 mm 2 m/s 635 mmHg 66%
08:00 +4°C° 0 mm 2 m/s 635 mmHg 64%
09:00 +7°C° 0 mm 1 m/s 635 mmHg 63%
10:00 +7°C° 0 mm 2 m/s 635 mmHg 65%
11:00 +8°C° 0 mm 2 m/s 635 mmHg 66%
12:00 +8°C° 0 mm 2 m/s 635 mmHg 67%
13:00 +9°C° 0 mm 2 m/s 635 mmHg 66%
14:00 +9°C° 0 mm 2 m/s 635 mmHg 65%
15:00 +9°C° 0 mm 2 m/s 635 mmHg 63%
16:00 +8°C° 0 mm 2 m/s 635 mmHg 68%
17:00 +8°C° 0 mm 1 m/s 635 mmHg 73%
18:00 +7°C° 0 mm 1 m/s 635 mmHg 77%
19:00 +6°C° 0 mm 1 m/s 635 mmHg 77%
20:00 +4°C° 0 mm 2 m/s 635 mmHg 76%
21:00 +4°C° 0 mm 2 m/s 635 mmHg 75%
22:00 +3°C° 0 mm 2 m/s 635 mmHg 74%
23:00 +3°C° 0 mm 2 m/s 635 mmHg 72%

Poimâine, 16 Aprilie, Vineri

Timp Temperatura Precipitaţii Vânt Presiune Umiditate
00:00 +2°C° 0 mm 3 m/s 635 mmHg 71%
01:00 +2°C° 0 mm 3 m/s 635 mmHg 70%
02:00 +2°C° 0 mm 3 m/s 635 mmHg 70%
03:00 +2°C° 0 mm 3 m/s 635 mmHg 69%
04:00 +3°C° 0 mm 2 m/s 635 mmHg 68%
05:00 +3°C° 0 mm 2 m/s 635 mmHg 67%
06:00 +3°C° 0 mm 2 m/s 635 mmHg 66%
07:00 +4°C° 0 mm 2 m/s 635 mmHg 67%
08:00 +6°C° 0 mm 2 m/s 635 mmHg 68%
09:00 +8°C° 0 mm 2 m/s 636 mmHg 69%
10:00 +9°C° 0.1 mm 2 m/s 636 mmHg 69%
11:00 +9°C° 0.1 mm 2 m/s 636 mmHg 68%
12:00 +10°C° 0.1 mm 3 m/s 636 mmHg 68%
13:00 +10°C° 0.1 mm 3 m/s 636 mmHg 67%
14:00 +10°C° 0.1 mm 3 m/s 636 mmHg 67%
15:00 +11°C° 0.1 mm 3 m/s 636 mmHg 66%
16:00 +10°C° 0 mm 3 m/s 636 mmHg 70%
17:00 +9°C° 0 mm 3 m/s 635 mmHg 73%
18:00 +8°C° 0 mm 2 m/s 635 mmHg 76%
19:00 +7°C° 0 mm 2 m/s 636 mmHg 77%
20:00 +5°C° 0 mm 3 m/s 636 mmHg 78%
21:00 +4°C° 0 mm 3 m/s 636 mmHg 78%
22:00 +4°C° 0 mm 3 m/s 636 mmHg 79%
23:00 +4°C° 0 mm 2 m/s 636 mmHg 80%

17 Aprilie, Sâmbătă

Timp Temperatura Precipitaţii Vânt Presiune Umiditate
00:00 +4°C° 0 mm 2 m/s 636 mmHg 81%
01:00 +3°C° 0 mm 3 m/s 636 mmHg 80%
02:00 +3°C° 0 mm 3 m/s 636 mmHg 78%
03:00 +3°C° 0 mm 3 m/s 635 mmHg 77%
04:00 +4°C° 0.1 mm 3 m/s 635 mmHg 80%
05:00 +4°C° 0.1 mm 3 m/s 635 mmHg 83%
06:00 +4°C° 0.1 mm 3 m/s 635 mmHg 86%
07:00 +5°C° 0.1 mm 3 m/s 636 mmHg 87%
08:00 +6°C° 0.1 mm 2 m/s 636 mmHg 88%
09:00 +7°C° 0.1 mm 2 m/s 636 mmHg 89%
10:00 +7°C° 0.2 mm 2 m/s 636 mmHg 91%
11:00 +7°C° 0.2 mm 2 m/s 636 mmHg 92%
12:00 +7°C° 0.2 mm 2 m/s 636 mmHg 94%
13:00 +7°C° 0.2 mm 2 m/s 636 mmHg 94%
14:00 +7°C° 0.2 mm 2 m/s 636 mmHg 94%
15:00 +7°C° 0.2 mm 2 m/s 636 mmHg 95%
16:00 +7°C° 0.2 mm 2 m/s 636 mmHg 95%
17:00 +6°C° 0.2 mm 2 m/s 636 mmHg 96%
18:00 +6°C° 0.2 mm 2 m/s 636 mmHg 96%
19:00 +6°C° 0.2 mm 2 m/s 636 mmHg 96%
20:00 +5°C° 0.2 mm 3 m/s 637 mmHg 97%
21:00 +5°C° 0.2 mm 3 m/s 637 mmHg 97%
22:00 +5°C° 0.1 mm 3 m/s 636 mmHg 96%
23:00 +5°C° 0.1 mm 3 m/s 636 mmHg 96%

18 Aprilie, Duminică

Timp Temperatura Precipitaţii Vânt Presiune Umiditate
00:00 +5°C° 0.1 mm 3 m/s 636 mmHg 96%
01:00 +5°C° 0 mm 3 m/s 636 mmHg 96%
02:00 +5°C° 0 mm 3 m/s 636 mmHg 95%
03:00 +5°C° 0 mm 3 m/s 635 mmHg 95%
04:00 +6°C° 0 mm 2 m/s 635 mmHg 95%
05:00 +6°C° 0 mm 2 m/s 635 mmHg 94%
06:00 +6°C° 0 mm 2 m/s 635 mmHg 94%
07:00 +7°C° 0.3 mm 2 m/s 635 mmHg 92%
08:00 +7°C° 0.3 mm 3 m/s 635 mmHg 90%
09:00 +8°C° 0.3 mm 3 m/s 635 mmHg 88%
10:00 +9°C° 0 mm 3 m/s 635 mmHg 85%
11:00 +10°C° 0 mm 3 m/s 635 mmHg 83%
12:00 +10°C° 0 mm 3 m/s 635 mmHg 80%
13:00 +10°C° 0.1 mm 3 m/s 635 mmHg 82%
14:00 +10°C° 0.1 mm 3 m/s 635 mmHg 83%
15:00 +10°C° 0.1 mm 2 m/s 635 mmHg 84%
16:00 +10°C° 0 mm 2 m/s 635 mmHg 86%
17:00 +9°C° 0 mm 3 m/s 635 mmHg 87%
18:00 +9°C° 0 mm 3 m/s 635 mmHg 88%
19:00 +9°C° 0.1 mm 3 m/s 635 mmHg 90%
20:00 +8°C° 0.1 mm 2 m/s 635 mmHg 92%
21:00 +8°C° 0.1 mm 2 m/s 635 mmHg 93%
22:00 +8°C° 0.1 mm 2 m/s 635 mmHg 94%
23:00 +7°C° 0.1 mm 2 m/s 635 mmHg 94%

19 Aprilie, Luni

Timp Temperatura Precipitaţii Vânt Presiune Umiditate
00:00 +7°C° 0.1 mm 3 m/s 635 mmHg 95%
01:00 +7°C° 0.1 mm 2 m/s 635 mmHg 95%
02:00 +6°C° 0.1 mm 2 m/s 635 mmHg 95%
03:00 +6°C° 0.1 mm 2 m/s 635 mmHg 95%
04:00 +6°C° 0 mm 2 m/s 635 mmHg 95%
05:00 +7°C° 0 mm 1 m/s 635 mmHg 95%
06:00 +7°C° 0 mm 1 m/s 635 mmHg 94%
07:00 +7°C° 0 mm 1 m/s 635 mmHg 93%
08:00 +8°C° 0 mm 1 m/s 636 mmHg 92%
09:00 +8°C° 0 mm 1 m/s 636 mmHg 90%
10:00 +9°C° 0 mm 1 m/s 636 mmHg 89%
11:00 +9°C° 0 mm 1 m/s 636 mmHg 87%
12:00 +10°C° 0 mm 1 m/s 636 mmHg 86%
13:00 +10°C° 0.1 mm 1 m/s 637 mmHg 85%
14:00 +11°C° 0.1 mm 1 m/s 637 mmHg 84%
15:00 +11°C° 0.1 mm 1 m/s 637 mmHg 83%
16:00 +11°C° 0.1 mm 1 m/s 637 mmHg 86%
17:00 +10°C° 0.1 mm 1 m/s 637 mmHg 89%
18:00 +10°C° 0.1 mm 1 m/s 637 mmHg 91%
19:00 +9°C° 0 mm 1 m/s 637 mmHg 91%
20:00 +9°C° 0 mm 1 m/s 637 mmHg 91%
21:00 +8°C° 0 mm 1 m/s 637 mmHg 92%
22:00 +8°C° 0 mm 1 m/s 637 mmHg 91%
23:00 +8°C° 0 mm 1 m/s 637 mmHg 90%
Arată mai mult

Formular de consimțământ

Meteoprog și furnizorii noștri de servicii pot stoca și accesa date personale, precum cookies, identificatori de dispozitiv sau alte tehnologii similare pe dispozitivul dumneavoastră și procesa astfel de date pentru a personaliza conținutul și reclamele, dar și pentru a oferi caracteristici de social media și pentru a analiza traficul.

  • Stocarea și/sau accesarea informațiilor pe dispozitivul dumneavoastră

    Cookies, identificatori de dispozitiv sau alte informații pot fi stocate sau accesate pe dispozitiv în scopurile indicate mai sus.

  • Reclame și conținut personalizat, evaluarea reclamelor și a conținutului, informații despre audiențe și dezvoltarea produselor

    Reclamele și conținutul pot fi personalizate pe baza unui profil. Pot fi adăugate date suplimentare pentru a personaliza mai bine reclamele și conținutul. Performanța reclamelor și conținutului poate fi măsurată. Pot fi obținute informații despre utilizatorii care au văzut reclamele și conținutul. Aceste date pot fi utilizate pentru a dezvolta sau îmbunătăți experiența utilizatorilor, sistemele și software-ul.

Dând clic pe ‘Sunt de acord’, permiteți utilizarea cookie-urilor menționate, a identificatorilor de dispozitiv, balizelor web sau altor tehnologii similare. Setările pot fi modificate din browser-ul dispozitivului dumneavoastră.

În anumite scopuri, interesele legitime pot prima asupra consimțământului. Puteți citi mai multe informații în acest sens în Politica privind Confidențialitatea Datelor și Cookie.